Simultaneous Nadir Overpasses (SNOs) Predictions

Prediction of SNOs between TERRA and METOP-C Satellite Orbit:

Table of predicted SNOs for the next 14.0 days since TLE Epoch: 3/30/2024
Index Date (TERRA) Time (TERRA) Lat,Lon (TERRA) SZA (TERRA ) Date (METOP-C) Time (METOP-C) Lat,Lon (METOP-C) SZA (METOP-C ) Distance(km) Time Diff (sec)
1 03/30/2024 16:15:33 79.17, -48.58 75.32 03/30/2024 16:14:28 79.17, -48.67 75.29 2.04 65
2 03/30/2024 17:04:48 -79.44, 120.72 104.37 03/30/2024 17:05:02 -79.43, 120.65 104.37 1.61 14
3 04/02/2024 07:35:59 -79.27, -98.15 105.58 04/02/2024 07:35:22 -79.26, -98.19 105.59 1.03 37
4 04/02/2024 08:25:15 79.48, 70.84 74.68 04/02/2024 08:25:56 79.47, 70.71 74.68 2.88 41
5 04/04/2024 22:56:23 79.36,-147.76 73.54 04/04/2024 22:56:13 79.36,-147.68 73.55 1.96 10
6 04/04/2024 23:45:39 -79.57, 21.31 106.20 04/04/2024 23:46:48 -79.58, 21.40 106.16 2.07 69
7 04/07/2024 13:27:34 79.11, -7.05 72.26 04/07/2024 13:26:35 79.11, -7.14 72.24 2.06 59
8 04/07/2024 14:16:49 -79.37, 162.21 107.42 04/07/2024 14:17:09 -79.37, 162.11 107.43 2.40 20
9 04/10/2024 04:47:58 -79.18, -56.81 108.64 04/10/2024 04:47:29 -79.17, -56.93 108.66 2.84 29
10 04/10/2024 05:37:11 79.51, 112.92 71.78 04/10/2024 05:37:59 79.51, 113.07 71.81 3.03 48



Historial Predications of SNOs between TERRA and METOP-C
